Home   Weather   Wagga Wagga   Past weeks

Flag for Australia Past Weather in Wagga Wagga, New South Wales, Australia — Yesterday and Last 2 Weeks

Now
54 °F

Mostly cloudy.


Feels Like: 49 °F
Forecast: 42 / 59 °F
Wind: 17 mph from Southwest

Location: Wagga Airport

Current Time: Apr 26, 2017 at 8:02:56 pm

Latest Report: Apr 26, 2017 at 7:00 pm


Visibility: N/A

Pressure: 29.89 "Hg

Humidity: 54%

Dew Point: 37 °F

Location of Wagga WaggaLocation

Past Weather in Wagga Wagga — Graph

°F

Wagga Wagga Temperature Yesterday

Maximum temperature yesterday: 66 °F (at 12:00 am)
Minimum temperature yesterday: 55 °F (at 11:00 pm)
Average temperature yesterday: 63 °F

High & Low Weather Summary for the Past Weeks

 TemperatureHumidityPressure
High82 °F (Apr 18, 3:00 pm)100% (Apr 25, 12:30 pm)30.42 "Hg (Apr 25, 12:30 pm)
Low43 °F (Apr 15, 6:00 am)23% (Apr 17, 2:00 pm)29.71 "Hg (Apr 26, 7:00 am)
Average62 °F65%30.13 "Hg
* Reported Apr 11 7:00 pm — Apr 26 7:00 pm, Wagga Wagga, Weather by CustomWeather, © 2017

Note: Actual official high and low records may vary slightly from our data, if they occured in-between our weather recording intervals... More about our weather records

Advertising

Wagga Wagga Weather History for the Previous 24 Hours

Scroll right to see more
 ConditionsComfort  
Time TempWeatherWind HumidityBarometerVisibility
7:00 pm
Wed, Apr 26
54 °FMostly cloudy.17 mph54%29.89 "HgN/A
6:00 pm54 °FMostly cloudy.16 mph72%29.86 "HgN/A
5:00 pm55 °FBroken clouds.14 mph67%29.83 "HgN/A
4:00 pm54 °FScattered showers. Broken clouds.17 mph77%29.80 "HgN/A
3:00 pm55 °FSprinkles. Broken clouds.16 mph67%29.77 "HgN/A
2:13 pm55 °FScattered showers. Partly sunny.17 mph67%29.74 "HgN/A
2:00 pm55 °FScattered showers. Partly sunny.15 mph67%29.74 "HgN/A
1:00 pm57 °FPartly sunny.20 mph63%29.74 "HgN/A
12:00 pm55 °FBroken clouds.17 mph67%29.74 "HgN/A
11:00 am54 °FBroken clouds.8 mph77%29.74 "HgN/A
10:00 am50 °FLight rain. Broken clouds.15 mph82%29.74 "HgN/A
9:23 am50 °FLight rain. Partly sunny.18 mph82%29.74 "HgN/A
9:18 am50 °FLight rain. Broken clouds.22 mph88%29.74 "HgN/A
9:02 am52 °FRain. More clouds than sun.24 mph94%29.74 "Hg1 mi
8:30 am55 °FScattered showers. Partly sunny.8 mph94%29.71 "HgN/A
8:00 am55 °FScattered showers. Partly sunny.10 mph94%29.71 "HgN/A
7:00 am54 °FCloudy.7 mph94%29.71 "HgN/A
6:02 am54 °FPartly cloudy.8 mph94%29.74 "HgN/A
5:00 am55 °FPassing clouds.6 mph100%29.74 "HgN/A
4:00 am55 °FPassing clouds.8 mph94%29.74 "HgN/A
3:35 am55 °FOvercast.7 mph94%29.74 "HgN/A
3:00 am55 °FMostly cloudy.5 mph100%29.74 "HgN/A
2:00 am55 °FMostly cloudy.5 mph94%29.77 "HgN/A
1:00 am54 °FPassing clouds.1 mph100%29.77 "HgN/A
12:30 am54 °FClear.No wind100%29.77 "Hg2 mi
12:09 am54 °FClear.3 mph100%29.77 "Hg2 mi
11:00 pm
Tue, Apr 25
55 °FPassing clouds.No wind94%29.80 "HgN/A
10:00 pm59 °FPassing clouds.5 mph88%29.77 "HgN/A
9:00 pm59 °FPassing clouds.6 mph88%29.80 "HgN/A
8:00 pm59 °FClear.6 mph88%29.80 "HgN/A
Weather by CustomWeather, © 2017

See weather overviewHow to use our weather pages